Weather in Nekrasovka

Russia / Khabarovsk Krai     48°20′58″N   135°14′09″E
temp.,
°C
wind,
m/s
gust,
m/s
humid.,
%
clouds,
%
prec.,
mm/h
press.,
hPa
HPBL,
m
9 december, thu
thu901:00−13ssw239857 0.0 103143
04:00−13ssw239744 0.0 103047
07:00−13ssw249678 0.0 102945
10:00−10ssw25885 0.0 102891
13:00−3ssw36745 0.0 1027223
16:00−4ssw24855 0.0 1025101
19:00−10ssw229415 0.0 102521
22:00−10ssw2295100 0.0 102531
10 december, fri
fri1001:00−9ssw2394100 0.0 102440
04:00−8ssw2295100 0.0 102439
07:00−7s2395100 0.0 102352
10:00−4ssw2492100 0.0 1023106
13:000ssw2487100 0.0 1022209
16:00−1ssw1394100 0.0 1021103
19:00−4w1198100 0.0 102220
22:00−4s1199100 0.0 102215
11 december, sat
sat1101:00−3nw1198100 0.7 102258
04:00−4nnw1198100 1.4 102236
07:00−5nnw1198100 0.8 102332
10:00−5wsw019590 0.8 102478
13:00−4sw129092 0.1 1023329
16:00−5ssw2294100 0.3 1022186
19:00−9ssw2398100 0.1 102263
22:00−11ssw2393100 0.1 102158
12 december, sun
sun1201:00−10ssw2394100 0.0 101981
04:00−9ssw2497100 0.1 1017111
07:00−9sw2497100 0.0 1015105
10:00−8sw2388100 0.1 1014143
13:00−6wsw2483100 0.0 1012460
16:00−8sw3590100 0.1 1011441
19:00−13sw359660 0.1 1011142
22:00−16ssw379887 0.1 1010143
13 december, mon
mon1301:00−16ssw3696100 0.1 1009205
04:00−14sw3695100 0.3 1008244
07:00−15sw369462 0.1 1009211
10:00−17sw379338 0.1 1009229
13:00−12sw497926 0.0 1008537
16:00−13sw49846 0.0 1009462
19:00−16sw389048 0.0 1011236
22:00−18ssw359619 0.0 1013101